Location: Beccas
(43.4309°N, 0.1528°E)
Time: 01:36:04
(UTC+00:00)

Genesis I - Pass Details

Date: 15 October 2021
Orbit: 469 x 547 km, 64.5° (Epoch: 02 December)

Event Time Altitude Azimuth Distance (km) Brightness Sun altitude
Rises 17:46:30 0° 333° (NNW) 2,718 7.2 -6.3°
Reaches altitude 10° 17:48:57 10° 345° (NNW) 1,827 6.1 -6.7°
Maximum altitude 17:52:32 28° 46° (NE) 1,044 4.3 -7.4°
Drops below altitude 10° 17:56:06 10° 106° (ESE) 1,818 5.4 -8.0°
Enters shadow 17:56:30 - 109° (ESE) 1,955 5.6 -8.1°
